Regional Weather Roundup
Issued by NWS Little Rock, AR

Home | Current Version | Previous Version | Graphics & Text | Print | Product List | Glossary On
Versions: 1 2 3 4 5 6 7 8 9 10 11 12 13 14 15 16 17 18 19 20 21 22 23 24 25 26 27 28 29 30 31 32 33 34 35 36 37 38 39 40 41 42 43 44 45 46 47 48 49 50
000
ASUS44 KLZK 140505
RWRLZK

WEATHER ROUNDUP FOR ARKANSAS
NATIONAL WEATHER SERVICE LITTLE ROCK AR
1200 AM CDT SUN SEP 14 2014

NOTE: "FAIR" INDICATES FEW OR NO CLOUDS BELOW 12,000 FEET WITH NO
SIGNIFICANT WEATHER AND/OR OBSTRUCTIONS TO VISIBILITY.

ARZ001-003-010-029-140600-
NORTHWEST ARKANSAS

CITY           SKY/WX    TMP DP  RH WIND       PRES   REMARKS
FAYETTEVILLE   PTCLDY    54  53  97 CALM      30.26R
FORT SMITH     MOCLDY    57  53  86 SE3       30.26R
HARRISON       PTCLDY    53  51  93 CALM      30.27S
BENTONVILLE    PTCLDY    55  50  82 CALM      30.27R
ROGERS         PTCLDY    55  51  86 SE3       30.27R
SILOAM SPGS    PTCLDY    55  48  76 SW3       30.27S
HIGHFILL       PTCLDY    52  50  93 W5        30.26S
$$

ARZ004-005-016-140600-
NORTH CENTRAL ARKANSAS

CITY           SKY/WX    TMP DP  RH WIND       PRES   REMARKS
BATESVILLE     PTCLDY    54  50  87 CALM      30.27S
FLIPPIN        PTCLDY    52  46  82 CALM      30.27F
MTN HOME       PTCLDY    54  46  74 SE6       30.27R
$$

ARZ040-041-140600-
WEST CENTRAL ARKANSAS

CITY           SKY/WX    TMP DP  RH WIND       PRES   REMARKS
MENA           PTCLDY    59  55  88 CALM      30.27S
MOUNT IDA      MOCLDY    56  54  93 CALM      30.24R
$$

ARZ009-017-025-026-028-140600-
NORTHEAST ARKANSAS

CITY           SKY/WX    TMP DP  RH WIND       PRES   REMARKS
CORNING          N/A     55  48  76 NE6       30.28S
JONESBORO      CLEAR     57  48  72 NE6       30.26S
NEWPORT        CLEAR     55  52  90 NE12      30.28S
WALNUT RIDGE   PTCLDY    45  45 100 NE6       30.26F
BLYTHEVILLE    CLEAR     53  52  96 NE3       30.27S
$$

ARZ022-023-033-042-044-140600-
CENTRAL ARKANSAS

CITY           SKY/WX    TMP DP  RH WIND       PRES   REMARKS
LITTLE ROCK    PTCLDY    59  50  72 NE7       30.26S
N LITTLE ROCK  PTCLDY    58  52  78 NE7       30.26S
JACKSONVILLE   CLEAR     57  51  82 NE2       30.26S
SEARCY         PTCLDY    57  49  75 N5        30.27S
HOT SPRINGS    CLEAR     57  54  89 CALM      30.26R
RUSSELLVILLE   PTCLDY    56  54  93 CALM      30.26S
CLINTON        FAIR      54  54 100 CALM      30.28S
$$

ARZ036-140600-
EAST ARKANSAS

CITY           SKY/WX    TMP DP  RH WIND       PRES   REMARKS
WEST MEMPHIS   CLEAR     56  56 100 N3        30.24R
$$

ARZ050-053-066-070-073-140600-
SOUTHWEST ARKANSAS

CITY           SKY/WX    TMP DP  RH WIND       PRES   REMARKS
ARKADELPHIA    CLOUDY    59  56  89 N3        30.25S
CAMDEN         CLEAR     57  55  94 N3        30.24S
TEXARKANA      CLOUDY    61  58  90 NE7       30.24F
EL DORADO      CLEAR     58  57  97 NW5       30.24R
DE QUEEN       CLOUDY    61  56  83 E6        30.23F
$$

ARZ056-057-069-140600-
SOUTHEAST ARKANSAS

CITY           SKY/WX    TMP DP  RH WIND       PRES   REMARKS
PINE BLUFF     CLEAR     59  54  83 NE5       30.24S
STUTTGART      CLEAR     57  52  82 NE5       30.25S
MONTICELLO     CLEAR     60  56  86 NE3       30.22F

$$




USA.gov is the U.S. government's official web portal to all federal, state and local government web resources and services.